Weather History for Andover, NJ

Change the Weather History Date:

Monday, December 10, 2012

  Actual Average (KFWN) Record (KFWN)
Temperature  
Mean Temperature 46 °F -  
Max Temperature 52 °F 41 °F 60 °F (1991)
Min Temperature 39 °F 23 °F 2 °F (1968)
Degree Days  
Heating Degree Days 20    
Moisture  
Dew Point 45 °F    
Average Humidity 97    
Maximum Humidity 100    
Minimum Humidity 85    
Precipitation  
Precipitation 0.04 in - - ()
Sea Level Pressure  
Sea Level Pressure 29.71 in    
Wind  
Wind Speed 2 mph (WNW)    
Max Wind Speed 12 mph    
Max Gust Speed 21 mph    
Averages and records for this station are not official NWS values.
T = Trace of Precipitation, MM = Missing Value Source: NWS Daily Summary

Daily Weather History Graph

Daily Weather History Graph

Search for Another Location

Airport:

Trip Planner

Search our weather history database for the weather conditions in past years. The results will help you decide how hot, cold, wet, or windy it might be!

Date:

Astronomy

Dec. 10, 2012 Rise Set
Actual Time 7:13 AM EST 4:30 PM EST
Civil Twilight 6:42 AM EST 5:01 PM EST
Nautical Twilight 6:07 AM EST 5:36 PM EST
Astronomical Twilight 5:34 AM EST 6:09 PM EST
Moon 3:52 AM EST (12/10) 2:18 PM EST (12/10)
Length of Visible Light 10h 19m
Length of Day
9h 17m
Waning Crescent, 10% of the Moon is Illuminated
Dec 10
Waning Crescent
Dec 13
New
Dec 20
First Quarter
Dec 28
Full
Jan 4
Last Quarter

Hourly Weather History & Observations

Time (EST) Temp. Windchill Dew Point Humidity Pressure Visibility Wind Dir Wind Speed Gust Speed Precip Events Conditions
12:54 AM 39.0 °F - 37.9 °F 96% 29.99 in - Calm Calm - 0.01 in   Unknown
1:54 AM 39.0 °F 35.7 °F 37.9 °F 96% 29.96 in - NNE 4.6 mph - N/A   Unknown
3:54 AM 39.0 °F 36.8 °F 37.9 °F 96% 29.90 in - Variable 3.5 mph - N/A   Unknown
4:54 AM 39.0 °F - 39.0 °F 100% 29.86 in - Calm Calm - 0.01 in   Unknown
5:54 AM 39.0 °F - 37.9 °F 96% 29.84 in - Calm Calm - N/A   Unknown
9:54 AM 43.0 °F - 42.1 °F 97% 29.78 in - Calm Calm - N/A   Unknown
10:54 AM 45.0 °F - 44.1 °F 97% 29.75 in - Calm Calm - N/A   Unknown
11:54 AM 48.0 °F - 46.9 °F 96% 29.71 in - SSW 3.5 mph - 0.01 in   Unknown
12:54 PM 52.0 °F - 51.1 °F 97% 29.67 in - Variable 5.8 mph - N/A   Unknown
1:54 PM 52.0 °F - 51.1 °F 97% 29.65 in - SSW 5.8 mph - N/A   Unknown
2:54 PM 51.1 °F - 50.0 °F 96% 29.63 in - SW 3.5 mph - N/A   Unknown
3:54 PM 51.1 °F - 50.0 °F 96% 29.62 in - Calm Calm - N/A   Unknown
4:54 PM 50.0 °F - 48.9 °F 96% 29.60 in - Calm Calm - N/A   Unknown
5:54 PM 50.0 °F - 48.9 °F 96% 29.59 in - Calm Calm - N/A   Unknown
6:54 PM 48.9 °F - 48.9 °F 100% 29.60 in - Calm Calm - N/A   Unknown
7:54 PM 48.9 °F - 48.9 °F 100% 29.59 in - Calm Calm - N/A   Unknown
8:54 PM 50.0 °F - 50.0 °F 100% 29.56 in - Calm Calm - N/A   Unknown
9:54 PM 51.1 °F - 50.0 °F 96% 29.58 in - Calm Calm - N/A   Unknown
10:54 PM 46.9 °F - 46.0 °F 97% 29.62 in - North 11.5 mph 20.7 mph 0.01 in   Unknown
11:54 PM 44.1 °F 39.5 °F 39.9 °F 85% 29.68 in - North 8.1 mph - N/A   Unknown